Find Starlink 32802

NORAD ID: 62738 Int'l Des: 2025-014 Owner: SPXS Country: US Constellation: starlink operational
LEOCIRCULAR

Current View

Loading 3D Globe...

About Starlink 32802

Starlink 32802 (NORAD 62738) is a starlink constellation satellite (v2 mini) launched Jan 21, 2025 by SPXS of US. It operates in LEO, CIRCULAR orbit with a mass of 730.00 kg.

About Starlink 32802

Description loading...

Upcoming Passes

Passes for default location (London). Set your location on the main map for personalized predictions.

Altitude History

Loading altitude history...

Two-Line Element Set

1 62738U 25014D 26167.11100419 .00020797 00000-0 76287-3 0 9995
2 62738 43.0002 318.2110 0001639 273.0965 86.9699 15.27590789 78313
Epoch: Jun 16, 2026 • Age: 21 hours

Current Status

Altitude 482.5 km
Velocity 7.63 km/s
Sub-Earth Point 5.49°N, 135.11°W
Launch Date Jan 21, 2025
Age 1.3 years
Type internet

Technical Details

Classification Payload
Mass 730.00 kg
Dry Mass 700.00 kg
Total Mass 730.00 kg
Length 0.30 m
Diameter 4.10 m
Span 29.00 m
Shape Box + pan
Manufacturer SPXS
Bus Type Starlink V2M
Phase Status In Orbit
Owner/State SPXS/US

Most Searched